Overview Statistics Trail Chart Weather Telemetry Raw packets
 

This is the latest recevied weather packets stored in our database for station/object WP3OF. If no packets are shown the sender has not sent any weather packets the latest 10 day(s).

<< 2 3 4 5 6 7 8 >>
Time Temp. Humidity Pressure Rain* Wind** Luminosity Snow
1788616582 30° C 70% 1017.6 hPa 0 mm - - -
1788616278 29.44° C 70% 1017.6 hPa 0 mm - - -
1788615973 29.44° C 72% 1017.7 hPa 0 mm - - -
1788615671 30° C 70% 1017.6 hPa 0 mm - - -
1788615367 30° C 69% 1017.6 hPa 0 mm - - -
1788615067 29.44° C 76% 1017.7 hPa 0 mm - - -
1788614766 29.44° C 72% 1017.5 hPa 0 mm - - -
1788614461 29.44° C 72% 1017.8 hPa 0 mm - - -
1788614157 30° C 71% 1017.6 hPa 0 mm - - -
1788613852 29.44° C 71% 1017.5 hPa 0 mm - - -
1788613550 29.44° C 71% 1017.5 hPa 0 mm - - -
1788613246 28.89° C 71% 1017.5 hPa 0 mm - - -
1788612939 28.89° C 73% 1017.7 hPa 0 mm - - -
1788612635 28.89° C 74% 1017.6 hPa 0 mm - - -
1788612332 28.33° C 75% 1017.6 hPa 0 mm - - -
1788612027 28.89° C 74% 1017.5 hPa 0 mm - - -
1788611723 28.89° C 74% 1017.6 hPa 0 mm - - -
1788611420 28.33° C 75% 1017.4 hPa 0 mm - - -
1788611119 28.33° C 76% 1017.8 hPa 0 mm - - -
1788610824 28.89° C 74% 1017.4 hPa 0 mm - - -
1788610509 28.33° C 75% 1017.5 hPa 0 mm - - -
1788610209 28.33° C 74% 1017.5 hPa 0 mm - - -
1788609903 28.33° C 75% 1017.5 hPa 0 mm - - -
1788609598 27.78° C 76% 1017.6 hPa 0 mm - - -
1788609333 27.78° C 77% 1017.4 hPa 0 mm - - -

* Rain latest hour (hover to see other rain measurements)
** Current wind speed in m/s (hover to see current wind gust speed)